Regional Weather Roundup
Issued by NWS

Home | Current Version | Previous Version | Graphics & Text | Print | Product List | Glossary On
Versions: 1 2 3 4 5 6 7 8 9 10 11 12 13 14 15 16 17 18 19 20 21 22 23 24 25 26 27 28 29 30 31 32 33 34 35 36 37 38 39 40 41 42 43 44 45 46 47 48 49 50
000
ASUS43 KMKX 291038
RWRWI

WISCONSIN REGIONAL WEATHER ROUNDUP
NATIONAL WEATHER SERVICE MILWAUKEE/SULLIVAN WI
600 AM CDT FRI MAY 29 2015

NOTE: "FAIR" INDICATES FEW OR NO CLOUDS BELOW 12,000 FEET WITH NO
SIGNIFICANT WEATHER AND/OR OBSTRUCTIONS TO VISIBILITY.

WIZ001-002-006>008-014>016-023>028-291200-
NORTHWEST WISCONSIN

CITY           SKY/WX    TMP DP  RH WIND       PRES   REMARKS
SUPERIOR ARPT  MOCLDY    42  41  97 CALM      29.87F
ASHLAND        CLOUDY    65  55  70 S7        29.89F
HAYWARD        LGT RAIN  62  58  86 S5        29.92S
SIREN          CLOUDY    64  58  81 S6        29.88F
CUMBERLAND     CLOUDY    61  55  82 SE8       29.90F
RICE LAKE      RAIN      62  58  88 SE9       29.92F
CHETEK         LGT RAIN  61  60  97 E3        29.92F
LADYSMITH      CLOUDY    62  56  82 SE5       29.94F
EAU CLAIRE     CLOUDY    63  59  87 S5        29.91F
MENOMONIE      LGT RAIN  63  60  93 CALM      29.91F
NEW RICHMOND   RAIN      62  61  97 S9        29.89F
OSCEOLA        RAIN      63  63 100 S5        29.91F
$$

WIZ003>005-009-010-017-018-291200-
NORTH CENTRAL WISCONSIN

CITY           SKY/WX    TMP DP  RH WIND       PRES   REMARKS
MANITOWISH WTR LGT RAIN  61  55  80 S6        29.95S
ARBOR VITAE    LGT RAIN  62  55  79 S7        29.96F
WOODRUFF       LGT RAIN  62  55  79 S7        29.96F
RHINELANDER    CLOUDY    64  53  67 S6        29.98F
EAGLE RIVER    CLOUDY    63  51  67 SW3       29.96F
LAND O LAKES   CLOUDY    64  53  68 S5        29.97S
PHILLIPS       CLOUDY    61  55  79 S7        29.93F
TOMAHAWK       DRIZZLE   59  55  84 CALM      29.97F
MEDFORD        CLOUDY    60  56  87 S6        29.97F
MERRILL        RAIN      63  56  80 SW5       29.99S
$$

WIZ029-030-035-036-043>047-291200-
CENTRAL WISCONSIN

CITY           SKY/WX    TMP DP  RH WIND       PRES   REMARKS
WAUSAU         LGT RAIN  65  56  72 SW6       29.98S
MOSINEE        DRIZZLE   61  57  88 SW8       30.00S
MARSHFIELD     RAIN      62  57  83 S9        29.98F
STEVENS POINT  LGT RAIN  62  56  81 S7        30.00F
WAUPACA        RAIN      64  58  81 SW9       30.00F
WAUTOMA        LGT RAIN  62  62 100 CALM      30.00F
WISC RAPIDS    LGT RAIN  62  58  86 S5        29.99F
CAMP DOUGLAS   CLOUDY    61  61 100 SE6       29.96F
$$

WIZ011>013-019>022-031-037>040-048>050-291200-
NORTHEAST WISCONSIN

CITY           SKY/WX    TMP DP  RH WIND       PRES   REMARKS
ANTIGO         CLOUDY    59  55  86 S7        30.00F
SHAWANO        CLOUDY    64  55  75 CALM      29.98F
OCONTO         CLOUDY    65  57  75 S7        29.99F
STURGEON BAY   CLOUDY    61  52  72 S14       30.03F
GREEN BAY      CLOUDY    67  56  67 S12       29.99F
MANITOWOC      CLOUDY    59  54  83 S14G20    30.02F
APPLETON       CLOUDY    64  55  72 S9        30.01R
CLINTONVILLE   CLOUDY    63  55  77 SW5       30.00S
OSHKOSH        CLOUDY    66  56  70 VRB5      30.00S
$$

WIZ032>034-041-042-053>061-291200-
SOUTHWEST WISCONSIN

CITY           SKY/WX    TMP DP  RH WIND       PRES   REMARKS
LA CROSSE      CLOUDY    65  60  84 SE8       29.93F
SPARTA         CLOUDY    61  59  94 CALM      29.95F
VIROQUA        CLOUDY    61  60  98 SE8       29.96F
BOSCOBEL       CLOUDY    63  61  93 CALM      29.97S
PRAIRIE DU CHI CLOUDY    64  61  90 CALM      29.97R
PLATTEVILLE    CLOUDY    63  62  96 SE7       29.99R
$$

WIZ056-057-062-063-064-067-068-291200-
SOUTH CENTRAL WISCONSIN

CITY           SKY/WX    TMP DP  RH WIND       PRES   REMARKS
REEDSBURG      CLOUDY    61  60  96 CALM      29.98S
BARABOO/DELLS  DRIZZLE   61  58  91 SE5       29.99F
LONE ROCK      LGT RAIN  63  60  90 E9        29.98F
MINERAL POINT  LGT RAIN  61  59  94 SE7       29.99F
MADISON        LGT RAIN  63  59  87 N3        29.99F
MIDDLETON      CLOUDY    64  62  94 CALM      30.00F
WATERTOWN      CLOUDY   N/A N/A N/A CALM      30.01R
MONROE         CLOUDY    63  59  88 CALM      29.99F
JANESVILLE     CLOUDY    63  55  77 CALM      29.99S
$$

WIZ051-052-058>065-066-070>072-291200-
SOUTHEAST WISCONSIN

CITY           SKY/WX    TMP DP  RH WIND       PRES   REMARKS
MILWAUKEE      CLOUDY    59  53  80 SE5       30.01F
WAUKESHA       CLOUDY    61  54  77 S6        30.02F
MILWAUKEE/TIMM CLOUDY    63  54  72 CALM      30.02S
RACINE         MOCLDY    59  53  80 S6        30.03F
BURLINGTON     MOCLDY    56  54  94 CALM      30.01F
KENOSHA        CLOUDY    63  57  81 S5        30.02F
FOND DU LAC    CLOUDY    66  57  72 SW8       30.00S
SHEBOYGAN      CLOUDY    60  53  77 S5        30.01F
WEST BEND      CLOUDY    63  54  72 CALM      30.01F
JUNEAU         CLOUDY    63  56  79 SW5       30.02S
$$

LSZ147-162-291200-
LAKE SUPERIOR

STATION/POSITION TIME  TEMP    WIND        PRES    WAVE
                       AIR SEA DIR/SP/G            HT/PER
                 (UTC) (F)     (DEG/KT/KT) (MB)    (FT/S)
W MID LAKE BUOY  0950   39 36  160/  2/  2   N/A     1/ 4
DEVILS ISLAND    1000   41        CALM       N/A
SAXON HARBOR     0900   65     200/  2/  7   N/A
$$

LMZ867-665-643>646-291200-
LAKE MICHIGAN

STATION/POSITION TIME  TEMP    WIND        PRES    WAVE
                       AIR SEA DIR/SP/G            HT/PER
                 (UTC) (F)     (DEG/KT/KT) (MB)    (FT/S)
CHAMBERS ISLAND  0900   63     140/  6/ 12   N/A
N MID LAKE BUOY  0950   45 36  190/  6/  6   N/A     1/ 4
NORTHPORT PIER   0800   57     150/  7/  9   N/A
SISTER BAY       0818   58     150/ 11/ 15   N/A
ALGOMA LAKESHORE 0908             CALM       N/A
KEWAUNEE LAKESHO 0900   52     170/  3/  7   N/A
SHEBOYGAN LAKESH 1000   55     170/ 10/ 11   N/A
PORT WASHINGTON  0900   52      CALM  /  2   N/A
ATWATER BUOY     0900   54     150/  4/  6   N/A
MILWAUKEE LAKESH 0900   56     130/  8/ 10   N/A
S MID LAKE BUOY  0950   47 38  150/ 14/ 14   N/A     1
KENOSHA   LAKESH 1000   56     180/  5/ 10   N/A
$$

TC  - TEMPERATURE IN CELSIUS
VSB - VISIBILITY IN STATUTE MILES
WCI - WIND CHILL INDEX
HX  - HEAT INDEX




USA.gov is the U.S. government's official web portal to all federal, state and local government web resources and services.